User: anonymous   Login
Location: Santa Barbara
(34.4500°N, 119.7700°W)
Time: 15:25:16
(UTC-07:00)
Language:

Cosmos 1892 Rocket - Orbit

View from above orbital plane
View from above orbital plane
View from above satellite
View from above satellite

Ground track
Ground track

The orbit data is extracted from the following two-line orbital elements,

1 18422U 87088B   15087.85966521  .00000794  00000-0  95367-4 0  9995
2 18422 082.5129 216.9936 0018672 228.2399 291.9982 14.82659847481581
Epoch (UTC): 28 March 2015 20:37:55
Eccentricity: 0.0018672
inclination: 82.5129°
perigee height: 608 km
apogee height: 634 km
right ascension of ascending node: 216.9936°
argument of perigee: 228.2399°
revolutions per day: 14.82659847
mean anomaly at epoch: 291.9982°
orbit number at epoch: 48158

The dashed part of the orbit path shows where the satellite is in the earth's shadow,  

DLR